EW7404 Weather Reports


time (UTC)temp
F
wind
direction
speed
knots
gust
knots
rain 1hr
in
rain 24hr
in
rain mn
in
humidity
%
barometer
mb
20260503225535 20 91 13.9 17.4 0.25 3.75 0.25 94 947.5
20260503224515 19 98 13.0 18.2 0.25 3.75 0.25 93 947.5
20260503223515 19 99 13.9 18.2 0.25 3.75 0.25 93 947.3
20260503222535 20 96 16.5 22.6 0.25 3.75 0.25 92 947.2
20260503221516 20 103 15.6 24.3 0.00 3.50 0.00 91 947.1
20260503220515 20 107 18.2 26.1 0.00 3.50 0.00 90 947.0
20260503215515 19 104 20.9 27.8 0.00 3.75 0.00 90 946.9
20260503214515 20 101 22.6 31.3 0.00 3.75 0.00 90 946.7
20260503213515 19 104 20.9 25.2 0.00 3.75 0.00 89 946.8
20260503212515 19 104 23.5 32.2 0.00 3.75 0.00 89 946.7
20260503211515 19 103 22.6 27.8 0.00 3.75 0.00 88 946.8
20260503210015 18 99 24.3 33.0 0.00 3.75 0.00 91 946.5
20260503205015 17 100 21.7 27.8 0.00 3.75 3.75 92 946.9
20260503204015 17 111 17.4 23.5 0.00 3.75 3.75 94 947.0
20260503203015 16 109 13.0 20.9 0.00 3.75 3.75 96 947.5
20260503202015 16 88 9.6 20.9 0.24 3.75 3.75 98 947.5
20260503201015 17 103 4.3 9.6 0.24 3.75 3.75 99 947.6
20260503200035 17 48 2.6 3.5 0.24 3.75 3.75 100 947.6
20260503195035 17 326 3.5 7.0 0.24 3.75 3.75 100 947.5
20260503194015 17 308 2.6 5.2 0.24 3.75 3.75 100 947.5
20260503193036 17 348 1.7 3.5 0.24 3.75 3.75 100 947.5
20260503192015 17 97 2.6 5.2 0.00 3.51 3.51 99 947.4
20260503191035 18 129 3.5 4.3 0.00 3.51 3.51 98 947.4
20260503190016 18 57 1.7 4.3 0.00 3.51 3.51 99 947.5
20260503185056 18 57 4.3 6.1 0.00 3.51 3.51 100 947.5
20260503184015 18 22 2.6 5.2 0.00 3.51 3.51 100 947.3
20260503183035 18 31 3.5 6.1 0.00 3.51 3.51 100 947.2
20260503182015 18 31 5.2 9.6 0.00 3.51 3.51 99 947.2
20260503181016 19 32 2.6 5.2 0.00 3.51 3.51 100 947.3
20260503180015 19 56 3.5 7.0 0.00 3.51 3.51 100 947.2
20260503175015 19 73 5.2 7.0 0.00 3.51 3.51 99 947.2
20260503174015 19 44 3.5 6.1 0.00 3.51 3.51 100 947.3
20260503173015 19 0 2.6 7.0 0.00 3.51 3.51 100 947.2
20260503172015 19 4 3.5 8.7 0.00 3.51 3.51 100 947.2
20260503171036 20 12 5.2 9.6 0.00 3.51 3.51 100 947.1
20260503131015 20 345 5.2 11.3 0.24 3.50 3.49 99 947.5
20260503081016 16 84 9.6 13.9 2.56 3.25 3.05 99 946.2
20260503072015 15 88 13.0 19.1 2.56 3.25 3.05 98 945.5
20260503071015 15 86 13.0 20.0 0.00 0.69 0.49 98 945.5
20260503055015 13 65 14.8 23.5 0.00 3.24 0.49 98 944.9
20260503054015 14 57 13.0 18.2 0.00 3.25 0.49 98 944.8
20260503053015 14 51 11.3 17.4 0.00 3.25 0.49 98 944.8
20260503052015 14 56 12.2 18.2 0.00 3.25 0.49 98 944.8
20260503051015 14 17 7.8 14.8 0.00 3.25 0.49 98 944.7
20260503050015 13 39 7.8 15.6 0.00 3.25 0.49 98 944.7
20260503045015 13 86 12.2 18.2 0.00 3.25 0.49 97 944.7
20260503044015 13 93 16.5 22.6 0.00 3.25 0.49 96 944.4
20260503043114 13 96 18.2 24.3 0.00 3.25 0.49 97 944.3
20260503042015 13 74 12.2 19.1 0.00 3.25 0.49 97 944.6
20260503041016 13 76 10.4 17.4 0.00 3.25 0.49 98 944.7
20260503040015 14 65 11.3 19.1 0.00 3.25 0.49 98 944.6
20260503035016 14 83 11.3 17.4 0.24 3.25 0.49 97 944.4
20260503034015 13 92 15.6 20.0 0.24 3.25 0.49 97 944.2
20260503033015 13 84 14.8 20.9 0.24 3.25 0.49 97 944.2
20260503032015 13 93 17.4 22.6 0.24 3.25 0.49 97 944.2
20260503031015 13 101 20.0 28.7 0.24 3.25 0.49 97 944.3
20260503030015 13 90 16.5 22.6 0.24 3.25 0.49 97 944.3
20260503025035 13 94 16.5 23.5 0.00 3.01 0.25 97 944.4
20260503024036 13 82 15.6 22.6 0.00 3.01 0.25 97 944.5
20260503023016 13 86 14.8 21.7 0.00 3.01 0.25 97 944.4
20260503022016 14 86 16.5 22.6 0.00 3.01 0.25 97 944.5
20260503021015 14 68 13.0 22.6 0.00 3.01 0.25 97 944.6
20260503020015 15 63 9.6 18.2 0.00 3.25 0.25 98 944.8
20260503015014 15 49 11.3 20.0 0.00 3.25 0.25 98 944.7
20260503014015 16 42 8.7 16.5 0.00 3.25 0.25 99 944.8
20260503013036 16 44 6.1 13.9 0.00 3.25 0.25 99 944.8
20260503012016 17 19 5.2 10.4 0.00 3.25 0.25 100 944.9
20260503011015 17 39 7.0 14.8 0.00 3.25 0.25 100 944.9
20260503010015 17 45 7.0 14.8 0.00 3.25 0.25 100 944.9
20260503005015 17 47 8.7 14.8 0.00 3.25 0.25 100 944.9
20260503004015 17 49 8.7 15.6 0.00 3.48 0.25 100 945.1
20260503003015 17 70 11.3 17.4 0.00 3.48 0.25 100 945.0
20260503002015 17 80 7.0 13.0 0.00 3.48 0.25 100 945.0
20260503001015 18 66 10.4 18.2 0.00 3.48 0.25 100 945.2
20260503000015 18 66 10.4 16.5 0.00 3.48 0.25 100 945.1
20260502235015 18 71 7.8 12.2 0.00 3.48 0.25 100 945.3
20260502234015 18 56 7.0 12.2 0.00 3.48 0.25 100 945.4
20260502233015 18 59 7.0 13.0 0.00 3.48 0.25 100 945.5
20260502232015 18 63 8.7 13.9 0.00 3.48 0.25 100 945.8
20260502231034 18 65 8.7 12.2 0.00 3.48 0.25 100 945.9
20260502230015 18 70 9.6 14.8 0.01 3.48 0.25 100 945.9